Date,TemperatureHighF,TemperatureAvgF,TemperatureLowF,DewpointHighF,DewpointAvgF,DewpointLowF,HumidityHigh,HumidityAvg,HumidityLow,PressureMaxIn,PressureMinIn,WindSpeedMaxMPH,WindSpeedAvgMPH,GustSpeedMaxMPH,PrecipitationSumIn
2012-12-1,57,47,34,44,39,31,91,76,62,30.37,30.20,11,1,14,0.00
2012-12-2,58,55,51,55,50,44,95,87,68,30.20,30.02,11,2,17,0.82
2012-12-3,61,56,48,58,54,47,96,92,88,30.26,30.11,14,1,15,0.00
2012-12-4,63,56,46,56,51,42,95,85,74,30.16,29.99,14,2,15,0.39
2012-12-5,47,40,36,42,32,26,86,73,61,30.48,30.16,13,2,14,0.00
2012-12-6,45,37,29,33,28,24,88,72,53,30.48,30.08,6,0,8,0.00
2012-12-7,48,44,39,44,40,30,94,85,65,30.09,29.97,4,0,5,0.05
2012-12-8,48,45,40,47,43,34,96,93,80,30.24,29.85,9,1,10,0.21
2012-12-9,55,43,36,54,39,31,95,85,70,30.29,29.74,7,1,11,0.19
2012-12-10,57,46,38,55,43,32,95,89,77,29.91,29.62,16,2,17,0.19
2012-12-11,40,37,31,33,30,26,86,76,65,30.30,29.92,11,2,16,0.01
2012-12-12,42,34,28,32,27,24,90,77,60,30.52,30.31,8,1,10,0.00
2012-12-13,46,35,26,30,26,23,90,71,48,30.54,30.31,10,0,11,0.00
2012-12-14,45,37,30,37,30,24,92,77,64,30.34,30.29,12,0,13,0.00
2012-12-15,49,41,30,36,32,28,93,73,54,30.30,29.89,10,1,11,0.01
2012-12-16,60,54,49,52,46,35,88,73,57,29.89,29.71,14,2,15,0.00
2012-12-17,52,46,43,47,42,39,91,84,77,29.84,29.63,9,1,14,0.00
2012-12-18,44,40,36,42,36,32,94,87,74,29.89,29.60,16,2,18,0.89
2012-12-19,45,40,35,40,37,32,92,87,79,30.25,29.85,4,0,7,0.00
2012-12-20,49,43,36,45,38,33,92,82,66,30.23,29.35,17,3,21,0.20
2012-12-21,44,36,33,39,32,30,93,86,73,29.77,29.33,28,5,30,0.19
2012-12-22,36,34,33,31,28,25,90,76,68,30.13,29.77,25,6,29,0.00
2012-12-23,37,32,24,31,26,20,84,77,69,30.13,29.99,12,1,15,0.01
2012-12-24,38,34,30,32,28,24,93,77,64,30.12,29.91,8,0,9,0.01
2012-12-25,37,36,34,34,30,26,96,81,67,30.36,29.99,9,0,9,0.06
2012-12-26,35,31,29,31,26,23,94,82,69,30.35,29.80,16,2,19,0.00
2012-12-27,35,32,30,30,29,26,95,87,77,30.22,29.78,11,2,15,0.01
2012-12-28,35,31,23,27,25,20,89,79,72,30.25,30.06,7,0,9,0.03
2012-12-29,34,32,28,32,28,24,96,88,81,30.06,29.80,14,1,20,0.01
2012-12-30,35,30,23,30,25,18,87,80,74,30.42,30.04,17,4,21,0.00
2012-12-31,38,31,22,33,25,17,91,79,64,30.37,30.06,15,2,18,0.00